Theta_e
353 356 357 356 350 349 347 340 329 323 323 328 329 339 336 338 339 340 341 340 342 341 338 337 337 338 338 339 340 341 342 343 343 344 345 347 351 353
354 350 348 345 343 337 334 333 331 327 323 328 329 337 338 336 338 340 339 339 338 338 337 335 336 336 336 337 337 338 339 339 340 340 340 341 342 344
343 341 340 341 335 334 334 333 331 329 325 328 331 335 338 336 337 338 338 340 338 337 336 335 334 334 334 334 335 336 337 337 338 338 339 339 340 341
337 338 336 334 337 338 333 335 334 334 328 331 331 331 333 336 336 337 335 335 336 336 336 334 333 332 331 331 331 331 330 331 333 334 336 337 338 339
336 336 335 335 334 333 333 331 330 330 330 326 325 329 330 332 332 335 336 338 335 336 334 333 332 331 330 329 327 325 323 323 324 325 328 329 332 336
336 335 334 332 333 331 329 329 329 325 324 324 325 326 325 332 331 326 327 334 335 335 336 333 333 333 332 330 329 328 323 320 319 319 320 320 321 325
333 333 332 330 328 328 325 325 326 322 322 325 324 324 323 324 325 329 329 326 328 332 331 331 331 334 335 331 333 331 326 324 321 319 318 317 316 318
328 329 329 329 328 326 323 323 323 322 324 321 323 323 321 323 328 329 328 326 321 329 327 326 329 328 332 334 331 328 327 327 324 322 320 317 316 316
326 325 323 326 325 324 321 322 323 324 324 324 320 321 320 326 328 328 329 328 325 325 327 322 327 326 331 330 326 324 323 322 321 321 320 319 317 316
325 324 322 321 320 316 319 323 326 327 327 327 322 324 325 328 327 328 328 328 327 327 327 316 323 324 328 330 326 323 321 320 320 319 319 317 314 313
324 324 320 318 312 311 318 315 315 321 321 320 320 319 319 318 320 324 323 321 315 317 322 318 320 322 324 327 331 323 320 318 317 318 318 317 313 311
322 322 316 312 308 307 315 313 308 311 313 318 321 324 327 331 321 328 319 312 311 311 316 312 313 316 316 324 327 328 329 316 315 315 315 314 311 330
314 313 313 306 305 304 304 307 303 308 313 321 320 321 323 325 324 324 323 317 311 309 314 313 312 313 316 317 322 325 327 328 333 327 310 310 309 320
312 310 311 302 301 301 302 302 302 306 313 315 316 315 315 314 322 322 320 316 315 312 314 314 311 311 311 312 314 322 322 327 330 337 337 322 309 311
309 307 304 301 300 301 300 301 302 304 309 311 311 311 315 316 320 319 320 316 314 314 318 320 318 316 314 312 314 317 321 322 325 332 350 340 336 329
310 310 303 301 300 299 299 301 305 307 307 307 305 309 312 314 315 318 314 313 310 312 317 321 321 321 316 316 317 317 321 320 333 336 339 342 341 340
305 308 304 299 298 296 297 300 301 305 305 305 305 305 308 312 315 318 315 312 309 310 312 318 321 323 321 319 315 317 319 321 326 339 337 335 334 337
307 304 299 298 296 294 297 301 305 304 304 303 304 305 305 309 311 314 314 312 309 310 313 316 316 318 318 320 318 321 321 320 324 333 339 335 335 336
306 303 301 298 298 300 302 302 302 304 306 304 304 305 305 307 310 311 307 310 309 310 314 315 314 314 313 312 315 310 319 324 327 329 336 337 338 344
304 302 300 301 301 300 300 301 302 303 303 304 305 305 306 306 308 311 312 309 310 312 315 315 313 314 316 316 313 313 305 317 323 330 334 341 340 323
301 301 301 300 300 301 301 301 303 302 303 304 304 304 306 307 307 309 312 307 309 313 313 314 314 315 318 318 311 311 313 308 313 327 327 332 336 340
302 301 301 301 300 301 301 301 301 302 302 302 303 304 305 308 308 309 311 312 311 313 315 317 317 316 315 312 311 312 312 315 312 309 309 310 317 333
301 301 301 301 300 300 300 300 300 301 301 301 302 303 305 307 309 310 311 311 315 312 315 317 317 315 312 312 310 311 312 313 312 312 311 309 308 309
Wind_Speed
11 10 8 9 10 7 10 11 13 15 13 12 11 10 11 12 12 14 15 19 14 12 15 16 16 15 15 15 14 15 14 14 13 12 12 12 13 15
8 10 9 9 10 10 11 11 11 13 15 12 11 7 11 12 16 15 17 15 20 21 19 17 16 15 15 15 15 15 15 15 15 14 14 15 14 15
10 11 11 11 10 10 10 10 11 12 15 13 12 10 13 15 15 16 16 15 14 17 16 16 15 15 15 15 15 15 15 15 16 15 16 16 16 15
11 11 11 9 11 11 10 12 12 13 14 16 12 9 14 15 15 17 15 12 13 18 16 11 14 16 16 17 15 14 15 15 15 15 15 16 16 16
10 11 11 12 12 11 12 13 12 11 12 13 14 11 11 10 12 15 13 15 13 19 21 27 22 17 15 16 15 15 14 14 14 14 15 15 15 17
11 11 12 11 10 14 13 13 12 11 10 13 12 11 8 11 11 10 12 8 11 12 14 15 16 15 18 18 18 17 16 16 15 14 14 14 14 15
13 12 12 11 15 14 9 10 11 8 11 11 10 11 12 11 10 10 10 8 10 11 9 9 11 11 12 21 18 20 18 16 14 13 14 13 14 14
12 12 12 15 10 9 11 15 14 11 13 9 10 11 12 9 9 9 8 8 8 9 12 11 11 11 12 12 12 5 14 14 13 12 12 13 13 13
12 11 10 11 13 9 14 17 16 17 10 10 11 9 11 11 11 11 12 12 12 12 14 15 12 13 13 15 13 13 13 13 13 13 13 13 13 12
11 11 11 11 10 16 16 16 15 12 9 7 7 12 12 13 13 12 13 14 14 13 15 14 14 15 15 15 17 14 15 15 16 15 14 14 13 13
12 12 11 11 17 19 14 12 12 10 7 10 12 19 22 23 16 9 8 8 13 15 16 15 15 17 15 15 15 15 18 18 18 18 16 15 13 11
12 13 11 12 13 15 13 11 9 11 12 11 10 12 12 9 12 7 7 6 11 15 11 10 11 12 13 13 13 14 13 18 20 20 19 16 13 11
9 9 9 20 16 14 15 10 11 16 15 11 9 9 10 11 9 10 9 7 12 14 15 10 9 11 13 15 13 9 9 10 11 15 17 16 17 16
6 7 10 14 14 15 13 18 19 17 8 9 9 9 9 12 11 12 15 12 12 17 20 17 8 11 12 11 10 13 10 11 11 11 11 10 14 16
8 11 12 13 13 11 18 19 15 7 9 9 10 11 11 11 15 11 14 16 17 17 14 13 11 11 11 10 9 9 12 6 9 14 3 6 7 9
8 7 12 12 11 12 12 11 6 8 9 10 10 11 12 11 12 12 11 13 14 15 19 14 12 10 8 10 9 7 10 8 4 10 4 5 5 8
11 8 9 9 9 8 8 10 9 9 10 11 11 12 12 13 13 13 12 12 14 15 14 13 14 2 2 3 5 6 7 7 9 5 6 6 5 6
7 9 9 8 8 9 9 11 11 12 11 11 11 11 12 13 13 13 14 13 14 15 13 11 11 2 1 1 6 3 5 4 9 4 7 6 6 7
7 9 10 10 8 9 11 11 12 11 12 11 11 12 12 12 14 12 11 13 15 15 14 12 11 6 2 1 2 14 3 4 5 7 6 7 6 5
9 9 8 8 10 10 11 11 11 12 12 12 11 12 12 13 14 15 12 11 15 14 13 13 15 12 3 2 3 4 10 5 4 7 3 6 1 4
9 9 10 10 10 10 10 10 12 12 12 12 12 12 13 13 14 15 12 12 14 12 15 16 15 21 8 3 5 3 4 13 5 8 4 5 6 6
9 9 9 9 10 10 10 11 11 12 13 12 12 12 13 13 14 15 14 11 9 11 10 9 13 12 11 10 8 6 6 4 9 19 16 7 3 3
9 9 9 9 9 10 11 11 12 12 12 12 12 12 13 13 13 13 14 11 9 10 11 9 8 6 10 9 10 8 12 7 7 10 12 17 18 19
Wind_Direction
282 285 283 296 312 294 277 265 300 301 301 306 301 299 297 305 304 303 293 287 280 271 271 265 261 260 261 262 258 252 251 255 250 248 252 248 247 250
294 301 297 273 292 306 295 298 297 296 296 303 298 297 289 299 293 296 291 285 269 257 253 252 252 258 255 254 256 252 246 247 249 245 243 241 237 242
301 298 308 304 296 306 305 296 293 299 297 301 306 317 304 293 292 295 289 286 281 262 237 242 244 249 257 255 249 248 248 242 244 241 239 237 237 237
308 309 302 302 303 296 290 307 301 292 293 299 305 296 307 296 290 289 283 285 283 290 296 237 241 241 248 255 251 242 241 239 237 239 240 240 240 237
303 304 308 311 304 307 303 298 297 306 307 307 300 291 288 302 296 292 283 285 280 272 260 260 249 244 247 248 249 244 242 238 236 231 231 239 239 239
312 310 307 303 304 314 303 305 300 308 300 280 301 314 293 308 304 310 322 312 305 297 295 280 284 241 230 233 236 240 242 236 236 231 231 232 233 236
305 305 306 328 277 274 289 294 293 288 289 303 291 305 306 318 299 301 291 296 289 287 289 274 280 274 254 229 242 232 234 235 233 230 233 235 232 232
317 316 314 290 353 355 337 309 295 286 284 288 295 299 298 295 295 303 296 294 312 296 298 296 284 283 275 263 267 216 205 219 219 219 230 227 227 229
314 318 324 330 332 335 314 292 276 252 261 274 282 288 290 297 309 300 299 301 295 304 292 287 284 279 274 269 236 229 232 227 232 232 229 238 227 224
324 329 351 338 355 334 318 307 305 307 308 309 283 282 288 296 292 297 300 296 299 309 313 298 293 283 288 271 243 222 222 226 229 233 225 236 231 225
340 359 2 348 355 347 329 334 322 317 329 308 285 275 275 271 266 285 291 315 299 299 296 298 287 275 262 264 269 210 220 224 223 231 224 224 226 223
341 352 356 7 355 353 340 347 334 331 320 308 293 289 285 289 235 236 307 299 296 296 287 274 278 284 283 275 264 272 255 214 217 221 226 212 202 239
336 346 345 355 351 356 349 353 330 315 306 301 329 317 323 325 329 303 316 297 292 287 284 280 264 263 255 260 267 263 265 292 256 215 222 203 193 213
345 336 357 352 349 349 349 338 330 313 329 329 327 327 336 314 326 318 303 290 276 279 284 276 261 239 242 248 253 258 253 250 267 264 204 174 190 204
360 13 3 353 353 349 344 334 332 327 337 326 333 319 323 310 311 316 302 304 295 291 287 275 267 245 227 232 234 229 257 254 266 254 212 177 191 198
344 14 354 351 359 344 341 320 307 336 331 331 327 314 317 318 318 324 328 316 314 318 321 312 296 262 215 221 217 204 233 242 258 217 177 236 208 204
311 349 358 358 357 351 336 343 329 342 350 339 331 328 326 325 329 336 335 323 321 326 326 333 340 36 225 190 189 211 227 248 261 207 182 200 195 209
333 4 357 356 350 341 333 345 353 349 352 335 334 333 331 331 335 336 339 335 325 325 331 341 341 339 47 110 48 203 214 243 270 224 219 208 194 195
7 7 6 352 329 333 354 350 347 349 338 344 336 338 335 335 333 334 337 331 329 329 338 349 347 333 172 113 74 37 331 261 284 299 260 211 233 171
15 16 354 349 360 357 353 345 345 345 345 345 345 342 342 341 339 338 340 339 334 331 341 359 359 352 339 76 78 37 9 288 297 300 294 260 276 131
12 6 9 5 358 351 351 347 340 346 344 344 349 347 346 342 342 341 337 340 337 344 349 358 358 357 20 47 58 17 36 32 24 310 351 296 237 205
7 3 3 5 357 351 354 346 344 350 350 349 351 346 344 337 344 341 342 343 347 348 343 347 355 10 28 33 28 29 34 39 55 60 56 52 328 246
7 1 358 1 359 355 353 349 348 349 351 348 346 347 334 339 342 342 344 348 355 349 346 338 356 17 21 26 21 13 29 57 49 59 60 46 61 59